Clemson, SC

11:32 AM EDT on August 17, 2019 (GMT -0400)
Oconee County Regional

Weather History for KCEU - July, 2019

Change the Weather History Date:

Sunday, July 21, 2019

  Actual Average Record
Temperature  
Mean Temperature 80 °F -  
Max Temperature 89 °F 91 °F 102 °F (1986)
Min Temperature 71 °F 68 °F 61 °F (1955)
Cooling Degree Days 14    
Growing Degree Days 30 (Base 50)    
Moisture  
Dew Point 70 °F    
Average Humidity 76    
Maximum Humidity 100    
Minimum Humidity 53    
Precipitation  
Precipitation 0.00 in - - ()
Sea Level Pressure  
Sea Level Pressure 30.02 in    
Wind  
Wind Speed 4 mph (WSW)    
Max Wind Speed 12 mph    
Max Gust Speed 21 mph    
Visibility 10 miles    
Events      
Averages and records for this station are not official NWS values.
T = Trace of Precipitation, MM = Missing Value Source: NWS Daily Summary

Daily Weather History Graph

Daily Weather History Graph

Search for Another Location

Airport or City:

Astronomy

Jul. 21, 2019 Rise Set
Actual Time 6:33 AM EDT 8:41 PM EDT
Civil Twilight 6:05 AM EDT 9:10 PM EDT
Nautical Twilight 5:30 AM EDT 9:45 PM EDT
Astronomical Twilight 4:52 AM EDT 10:22 PM EDT
Moon 11:46 PM EDT (7/21) 10:44 AM EDT (7/21)
Length of Visible Light 15h 05m
Length of Day
14h 08m
Waning Gibbous, 80% of the Moon is Illuminated
Jul 21
Waning Gibbous
Jul 24
Last Quarter
Jul 31
New
Aug 7
First Quarter
Aug 15
Full

Hourly Weather History & Observations

Time (EDT) Temp. Heat Index Dew Point Humidity Pressure Visibility Wind Dir Wind Speed Gust Speed Precip Events Conditions
12:54 AM 73.0 °F - 71.1 °F 93% 30.04 in 10.0 mi Calm Calm - N/A   Clear
1:54 AM 71.1 °F - 70.0 °F 96% 30.01 in 10.0 mi Calm Calm - N/A   Clear
2:54 AM 73.0 °F - 70.0 °F 90% 30.00 in 10.0 mi West 4.6 mph - N/A   Clear
3:54 AM 71.1 °F - 70.0 °F 96% 30.00 in 10.0 mi Calm Calm - N/A   Clear
4:54 AM 71.1 °F - 70.0 °F 96% 30.01 in 9.0 mi Calm Calm - N/A   Clear
5:54 AM 71.1 °F - 71.1 °F 100% 30.02 in 9.0 mi WNW 3.5 mph - N/A   Clear
6:54 AM 71.1 °F - 70.0 °F 96% 30.03 in 10.0 mi SSW 3.5 mph - N/A   Clear
7:54 AM 73.0 °F - 71.1 °F 93% 30.04 in 10.0 mi West 6.9 mph - N/A   Clear
8:54 AM 75.0 °F - 71.1 °F 87% 30.06 in 10.0 mi West 9.2 mph - N/A   Clear
9:54 AM 78.1 °F - 73.0 °F 84% 30.06 in 10.0 mi West 8.1 mph - N/A   Clear
10:54 AM 82.0 °F 86.7 °F 72.0 °F 71% 30.05 in 10.0 mi Variable 4.6 mph - N/A   Clear
11:54 AM 84.0 °F 89.6 °F 72.0 °F 67% 30.05 in 10.0 mi West 6.9 mph 20.7 mph N/A   Partly Cloudy
12:54 PM 84.9 °F 90.1 °F 71.1 °F 63% 30.04 in 10.0 mi WSW 9.2 mph - N/A   Partly Cloudy
1:54 PM 87.1 °F 92.8 °F 71.1 °F 59% 30.03 in 10.0 mi West 6.9 mph - N/A   Partly Cloudy
2:54 PM 87.1 °F 92.0 °F 70.0 °F 57% 30.01 in 10.0 mi WSW 11.5 mph - N/A   Partly Cloudy
3:54 PM 88.0 °F 92.9 °F 70.0 °F 55% 29.99 in 10.0 mi SW 9.2 mph - N/A   Clear
4:54 PM 88.0 °F 92.1 °F 69.1 °F 53% 29.99 in 10.0 mi WSW 9.2 mph - N/A   Clear
5:54 PM 87.1 °F 92.0 °F 70.0 °F 57% 29.98 in 10.0 mi WSW 8.1 mph - N/A   Clear
6:54 PM 86.0 °F 90.7 °F 70.0 °F 59% 29.97 in 10.0 mi Variable 6.9 mph - N/A   Clear
7:54 PM 82.9 °F 87.0 °F 70.0 °F 65% 29.99 in 10.0 mi SW 3.5 mph - N/A   Clear
8:54 PM 82.0 °F 85.5 °F 69.1 °F 65% 29.99 in 10.0 mi Variable 3.5 mph - N/A   Clear
9:54 PM 80.1 °F 82.9 °F 69.1 °F 69% 30.00 in 10.0 mi Calm Calm - N/A   Clear
10:54 PM 79.0 °F - 69.1 °F 72% 30.01 in 10.0 mi SW 3.5 mph - N/A   Clear
11:54 PM 77.0 °F - 70.0 °F 79% 30.01 in 10.0 mi WSW 4.6 mph - N/A   Clear